Volver al catálogo

FENGYUN 1C DEB

ActivoPO
NORAD 30314·DEBRIS·🇨🇳 China

Lanzado May 10, 1999 desde Taiyuan Satellite Launch Center

Loading…

Próximos Pases (próximas 24 horas)

TLE

ActualizadoSource: Space-Track

Época: Sep 14, 2026, 06:49 UTC

1 30314U 99025AAB 26257.28465219  .00000883  00000-0  55319-3 0  9990
2 30314  98.3990  71.3375 0141918 299.4663  59.2408 14.02116128999696

Sigue FENGYUN 1C DEB en tiempo real con AllMySat

Download on the App Store